CZ-4B DEB, 39052

Orbit data source: Space-Track

CZ-4B DEB, 39052 is space debris in SSO originally from a launch on Thu, 14 Oct 1999 UTC launched from the Taiyaun Space Center, China (TSC). Debris objects in space refer to the collection of defunct objects orbiting the Earth. Examples of debris include non-operational satellites, rocket bodies, and fragments generated from explosions, collisions, or faulty payload assembly.

Loading next visibility...
Identifier
39052, 1999-057SZ
Orbit
SSO
Country
Flag of CNCN / PRC
Related business
Manufacturer
Unknown
Mission
Spacecraft
Bus & Motor
Unknown
Mass
Unknown
Launch date (UTC)
1999-10-14 (26 years ago)
Launch vehicle
Unknown
Launch site
Taiyaun Space Center, China (TSC)
Object type
Payload
Rocket body
Debris
Shape & HBR
Unknown shape, 0.1 m
Radar Cross Section
Small (<0.1 m²)

Expand to show TLE details & history
Last TLE update: 16 hours ago

TLE from 16 hours ago
0 CZ-4B DEB
1 39052U 99057SZ  25350.27549038  .00000597  00000-0  59403-4 0  9998
2 39052  98.7550   0.2869 0056256 267.5444  91.9333 14.95227811711463
Epoch: 2025-12-16T06:36Z
TLE epoch observation values (Epoch: 2025-12-16T06:36:42.368Z)
Latitude
0.00002°
Longitude
175.94833°
Altitude
586.222 km
Speed
7.566 km/s
True Right ascension
00h 01m 08s
True Declination
0° 00' 00"
Sunlit
Object was in daylight at epoch
Visualization orbit readout
Latitude
Unknown
Longitude
Unknown
Altitude
Unknown
Speed
Unknown
Apparent Right ascension
Unknown
Apparent Declination
Unknown
Sunlit
N/A
Visualization observer readout
Local Sidereal Time
21:40:40
Azimuth
Unknown
Elevation
Unknown
Doppler factor
Unknown
Orbital elements
Apogee altitude
617.863 km
Perigee altitude
539.59 km
Semi-major axis
6,956.864 km
Eccentricity
0.00563
Inclination
98.755°
RAAN
0.2869°
Arg. of periapsis
267.5444°
True anomaly
92.57741°
Mean anomaly
91.9333°
Eccentric anomaly
92.25537°
Mean motion
3.74044 °/min
Orbital period
96.25 mins
BSTAR
0.000059403
Loading maneuver chart data...
Computing Atmospheric mass density...
Loading historical data...
Loading historical data...
Loading historical data...
Loading historical data...
Loading historical data...
Loading historical data...
Loading historical data...

Documentation

Showing up to 5 results
|